Showing default

FALCONSAT-10, 58291

Orbit data source: Space-Track

FALCONSAT-10, 58291 is a payload satellite owned by USAF Academy (US) in SSO that was launched on Sat, 11 Nov 2023 UTC via an FALCON 9 launch vehicle from the Air Force Western Test Range (AFWTR). Payload-class satellites include a variety of spacecraft equipped with specific instruments for various scientific and technological missions. These include communications satellites like Starlink; space stations such as the ISS; scientific satellites like the Hubble; Earth observation satellites from companies like Planet Labs, Umbra, and HawkEye 360; GPS; miniature CubeSats for education and research; and military/defense satellites.

Loading next visibility...
Identifier
58291, 2023-174AM
Orbit
SSO
Country
Flag of USUS
Related business
Manufacturer
USAF Academy
Mission
Operational Defense Technology
Bus & Motor
FALCONSAT, Unknown motor
Mass
140 kg wet, 140 kg dry
Launch date (UTC)
2023-11-11 (2 years ago)
Launch vehicle
FALCON 9
Launch site
Air Force Western Test Range (AFWTR)
Object type
Payload
Rocket body
Debris
Shape & HBR
Box, 0.5 m
Radar Cross Section
0.780 m², Medium (>0.1 m² and < 1m²)

Expand to show TLE details & history
Last TLE update: 6 hours ago

TLE from 6 hours ago
0 FALCONSAT-10
1 58291U 23174AM  25355.15278116  .00004040  00000-0  16182-3 0  9992
2 58291  97.4012  68.0766 0010386  95.7736 264.4687 15.25566297117608
Epoch: 2025-12-21T03:40Z
TLE epoch observation values (Epoch: 2025-12-21T03:40:00.292Z)
Latitude
0.00004°
Longitude
-76.89395°
Altitude
492.878 km
Speed
7.618 km/s
True Right ascension
04h 32m 18s
True Declination
0° 00' 00"
Sunlit
Object was in full shadow at epoch
Visualization orbit readout
Latitude
Unknown
Longitude
Unknown
Altitude
Unknown
Speed
Unknown
Apparent Right ascension
Unknown
Apparent Declination
Unknown
Sunlit
N/A
Visualization observer readout
Local Sidereal Time
08:24:25
Azimuth
Unknown
Elevation
Unknown
Doppler factor
Unknown
Orbital elements
Apogee altitude
493.173 km
Perigee altitude
478.915 km
Semi-major axis
6,864.181 km
Eccentricity
0.00104
Inclination
97.4012°
RAAN
68.0766°
Arg. of periapsis
95.7736°
True anomaly
264.35025°
Mean anomaly
264.4687°
Eccentric anomaly
264.40948°
Mean motion
3.81645 °/min
Orbital period
94.33 mins
BSTAR
0.00016182
Loading maneuver chart data...
Computing Atmospheric mass density...
Loading historical data...
Loading historical data...
Loading historical data...
Loading historical data...
Loading historical data...
Loading historical data...
Loading historical data...

Documentation

Showing up to 5 results
|